Temp
4 5 8 12 14 15 16 15 15 16 15 15 15 15 16 15 14 13 12 12 12 13 13 13 13 13 12 13 13 13 13 13 13 13 14 15 16 16 16 15 15 15 16
3 4 5 8 12 15 15 15 15 14 14 14 14 15 15 14 13 13 12 12 12 13 13 13 12 12 12 12 12 12 12 13 13 13 13 15 15 16 16 15 15 16 16
2 2 3 4 7 10 11 14 14 14 14 13 13 14 13 13 13 12 12 12 12 13 13 13 13 12 12 12 12 12 12 12 12 12 14 15 14 14 14 15 15 15 13
1 1 2 2 3 5 7 11 13 13 13 13 13 13 13 13 13 12 12 12 12 13 13 13 13 12 12 12 12 12 12 11 11 11 12 12 12 13 14 14 14 14 12
-1 0 1 1 2 3 4 7 9 12 13 13 13 12 12 12 12 12 12 12 12 12 12 12 12 12 13 13 12 12 12 11 11 11 11 11 12 12 13 13 14 13 11
-1 -1 -1 0 0 2 1 2 3 4 7 10 12 12 12 12 12 12 12 12 12 12 12 12 12 12 12 12 12 12 12 11 11 11 11 11 11 12 12 13 12 11 8
-2 -2 -1 -1 -1 -1 1 1 2 1 1 1 3 5 6 7 10 11 11 11 11 11 11 12 12 12 12 12 11 11 11 11 11 11 11 11 11 12 11 11 11 11 10
-3 -3 -3 -2 -2 -1 -1 -1 -0 1 0 -0 -0 -0 1 1 4 8 10 10 9 8 8 9 9 10 10 10 9 8 7 7 8 9 10 9 9 9 9 9 9 8 5
-5 -4 -4 -3 -3 -2 -2 -2 -2 -1 -0 -1 -0 -1 -1 -1 1 2 7 6 4 3 3 4 5 5 6 7 7 4 1 0 0 3 3 4 4 5 5 5 5 4 0
-6 -5 -5 -4 -4 -3 -3 -3 -3 -3 -3 -3 -2 -1 -1 -2 -1 -0 1 0 -0 -1 -0 1 2 2 2 2 4 2 -1 -2 -0 -0 -1 0 1 1 2 2 2 2 -1
-5 -5 -5 -5 -5 -4 -4 -3 -3 -3 -3 -3 -4 -3 -3 -3 -2 -2 -1 -0 -2 -3 -3 -3 -2 -1 -0 0 -0 -1 -2 -2 -2 -1 -2 -2 -1 -1 -1 0 1 1 -0
-5 -6 -6 -5 -5 -5 -5 -4 -4 -4 -4 -4 -4 -4 -4 -4 -4 -3 -3 -3 -3 -4 -4 -4 -4 -2 -2 -2 -2 -3 -2 -2 -3 -3 -4 -5 -5 -4 -4 -3 -3 -3 -3
-5 -6 -6 -6 -6 -6 -6 -5 -5 -5 -5 -4 -4 -4 -4 -4 -4 -4 -4 -4 -4 -5 -5 -5 -4 -3 -3 -4 -4 -3 -3 -4 -5 -5 -5 -5 -6 -5 -5 -4 -4 -4 -4
-5 -5 -6 -7 -7 -7 -6 -6 -6 -6 -6 -5 -5 -4 -4 -4 -4 -4 -5 -5 -5 -5 -4 -5 -5 -5 -5 -5 -5 -5 -5 -5 -6 -6 -6 -5 -5 -5 -5 -5 -5 -4 -5
-5 -6 -6 -6 -7 -7 -7 -6 -6 -6 -5 -5 -5 -5 -5 -5 -5 -5 -5 -5 -5 -6 -6 -6 -6 -6 -7 -7 -7 -7 -7 -6 -6 -6 -5 -5 -5 -5 -5 -5 -5 -6 -7
-6 -6 -6 -6 -6 -7 -7 -7 -7 -7 -7 -6 -6 -5 -6 -6 -6 -6 -6 -6 -6 -5 -6 -8 -9 -8 -9 -9 -8 -8 -8 -8 -8 -7 -7 -7 -7 -7 -7 -7 -7 -7 -8
-6 -6 -6 -6 -7 -7 -7 -8 -7 -7 -8 -8 -7 -7 -7 -7 -7 -7 -8 -6 -6 -6 -8 -9 -10 -10 -10 -9 -9 -9 -10 -9 -8 -8 -8 -8 -8 -8 -8 -8 -8 -8 -9
-6 -6 -6 -6 -7 -7 -7 -8 -8 -8 -8 -8 -9 -9 -9 -9 -9 -9 -7 -6 -8 -9 -10 -10 -10 -10 -10 -10 -10 -10 -10 -9 -9 -9 -9 -9 -9 -9 -9 -9 -9 -9 -10
-7 -7 -7 -7 -7 -7 -8 -8 -8 -9 -9 -10 -9 -9 -9 -10 -9 -9 -8 -9 -11 -11 -11 -11 -11 -11 -11 -11 -11 -11 -11 -11 -11 -11 -11 -11 -10 -10 -10 -10 -10 -10 -10
-7 -7 -7 -7 -7 -8 -8 -9 -9 -10 -10 -11 -11 -11 -10 -10 -11 -12 -12 -12 -12 -12 -12 -12 -13 -12 -12 -12 -12 -12 -12 -12 -12 -12 -12 -12 -11 -11 -11 -11 -12 -12 -12
-8 -8 -8 -8 -8 -8 -9 -9 -10 -10 -11 -11 -12 -12 -12 -12 -13 -13 -13 -13 -13 -13 -13 -13 -14 -14 -14 -14 -14 -13 -13 -14 -14 -14 -13 -13 -13 -12 -12 -12 -13 -13 -13
-9 -9 -9 -9 -9 -9 -9 -10 -10 -11 -11 -12 -12 -13 -13 -13 -14 -14 -14 -15 -15 -15 -15 -14 -14 -15 -15 -15 -15 -15 -15 -15 -15 -15 -15 -14 -14 -14 -14 -13 -14 -14 -14
-10 -10 -10 -10 -10 -10 -10 -10 -11 -11 -12 -12 -13 -13 -13 -14 -14 -15 -15 -16 -16 -16 -16 -16 -16 -16 -16 -17 -17 -16 -16 -16 -16 -16 -16 -15 -15 -15 -15 -15 -15 -14 -14
-11 -11 -11 -11 -11 -11 -11 -11 -11 -12 -12 -13 -13 -13 -14 -14 -15 -15 -16 -16 -17 -17 -17 -17 -17 -17 -18 -18 -18 -18 -18 -17 -17 -17 -17 -16 -16 -16 -16 -16 -16 -16 -15
-12 -12 -12 -12 -12 -12 -12 -12 -12 -12 -13 -13 -13 -14 -14 -15 -15 -16 -16 -16 -17 -17 -17 -18 -18 -18 -19 -19 -19 -19 -19 -19 -18 -17 -17 -17 -17 -17 -17 -17 -17 -17 -16
-13 -13 -13 -13 -13 -13 -13 -13 -13 -13 -13 -14 -14 -14 -15 -15 -16 -16 -16 -17 -17 -18 -18 -18 -18 -19 -19 -19 -19 -19 -19 -19 -19 -18 -17 -18 -18 -18 -18 -18 -18 -18 -18
Height
696 690 685 681 682 684 685 689 691 694 697 702 705 708 712 715 719 723 727 728 730 731 732 730 732 736 742 746 752 757 763 768 771 775 777 781 783 786 789 792 794 797 799
701 693 687 682 680 681 682 684 687 690 692 697 700 703 707 710 714 718 722 724 724 726 727 728 729 730 736 741 747 752 758 763 767 770 773 777 778 782 785 788 789 792 794
701 696 695 688 683 680 681 683 683 686 688 693 696 698 701 704 709 713 717 719 720 722 723 723 725 729 733 737 742 748 754 758 762 767 770 773 775 779 782 782 785 788 791
708 702 697 694 690 686 684 681 682 683 685 687 689 694 698 701 705 710 713 715 716 718 721 718 721 724 728 733 738 742 748 754 759 763 766 769 771 775 776 777 779 782 785
714 708 707 704 698 690 686 682 681 684 681 682 685 692 694 697 701 705 709 712 713 714 718 719 717 720 725 730 734 739 744 749 753 756 759 763 765 767 768 769 772 775 780
722 719 713 711 704 697 696 690 688 684 682 680 682 690 690 695 698 702 705 707 710 711 715 717 719 721 723 727 731 735 737 741 744 747 750 752 755 758 761 763 766 771 776
729 726 722 718 711 707 701 696 699 692 690 688 685 690 690 693 696 699 702 705 705 707 710 713 715 717 721 724 725 729 731 732 736 740 742 744 748 751 755 756 759 763 766
739 736 732 726 723 718 712 709 706 705 705 693 699 697 696 697 694 697 699 703 703 705 707 710 712 714 717 719 722 724 726 729 732 734 737 740 743 746 750 752 755 759 763
747 746 741 736 731 728 724 720 720 711 707 712 710 708 707 702 702 701 699 700 703 706 709 710 712 714 715 716 719 721 725 730 731 732 734 737 739 742 746 749 752 756 760
756 754 751 746 740 735 732 729 727 725 726 724 716 714 711 712 710 714 703 703 706 708 710 713 715 715 716 719 720 723 724 729 730 734 738 740 741 742 744 746 749 754 756
763 761 757 753 749 746 742 738 736 732 727 729 726 724 726 724 716 724 720 712 714 711 715 718 719 721 717 722 726 727 730 731 733 734 740 743 744 746 746 748 751 753 757
772 768 764 759 755 752 751 749 747 744 739 737 741 739 737 731 727 729 723 727 720 722 721 724 727 725 725 727 731 735 737 740 739 736 742 746 753 752 752 753 755 759 760
777 773 769 765 762 759 758 755 752 750 747 747 748 750 746 741 743 743 732 734 731 734 733 729 731 733 732 734 741 743 740 749 748 739 747 752 758 763 762 753 759 765 770
782 778 774 770 768 768 767 766 763 761 759 760 758 754 753 752 755 753 750 745 744 743 739 744 739 744 743 740 746 751 752 756 752 750 754 758 761 758 764 764 765 771 777
786 784 782 779 777 775 775 775 773 773 771 769 765 762 759 758 759 757 756 755 756 754 753 752 749 752 754 754 756 758 759 761 761 758 756 761 760 761 767 772 770 775 776
792 790 788 786 784 784 783 781 780 778 776 774 772 769 770 770 767 765 765 765 763 761 757 758 762 762 764 763 764 764 764 766 766 765 766 769 770 771 771 774 777 778 780
798 796 793 791 790 790 788 787 785 784 781 779 778 777 778 776 773 772 770 766 767 768 764 768 769 769 769 769 771 770 770 772 772 771 772 775 776 776 778 778 778 780 784
801 799 798 796 795 794 793 792 791 790 788 787 786 785 784 782 779 777 776 773 772 773 773 772 773 773 775 777 776 777 777 777 777 778 779 780 780 779 781 783 786 785 785
804 803 802 801 799 798 796 795 794 793 792 791 790 788 785 784 782 779 778 777 778 778 780 779 778 780 781 783 782 782 783 783 783 784 785 784 783 783 784 787 788 790 788
807 806 804 802 801 800 799 798 797 796 795 794 792 791 789 787 786 785 784 783 783 784 784 785 786 786 786 786 786 787 787 787 787 788 789 788 786 788 791 791 793 793 792
809 808 806 804 803 802 801 800 799 798 797 796 795 794 793 791 790 790 790 790 790 790 790 790 790 790 789 790 791 790 791 791 791 791 793 792 792 792 793 793 794 795 795
811 809 807 806 805 803 802 802 801 801 800 799 798 797 797 795 795 795 794 794 794 794 794 794 792 793 793 793 794 794 793 794 794 795 795 795 794 794 794 794 794 796 797
812 810 808 807 806 805 804 803 802 802 802 801 801 800 799 799 798 798 798 798 798 797 796 796 796 797 797 796 795 796 796 795 795 796 795 795 795 794 794 795 796 795 795
813 811 810 808 807 806 805 804 804 804 803 803 802 802 802 802 802 802 801 801 801 800 800 799 799 798 799 798 797 798 797 795 794 795 795 795 795 795 795 796 797 796 796
814 813 811 810 808 807 806 805 805 804 804 804 804 804 803 803 803 803 803 803 803 802 802 801 800 801 800 799 798 797 797 795 793 793 795 795 796 796 797 797 798 797 796
816 814 813 811 810 809 807 807 806 805 805 804 804 804 804 804 804 803 803 803 803 802 802 802 801 801 800 799 799 798 797 796 795 795 796 796 796 796 796 796 797 797 796
Wind_Speed
27 26 22 14 16 27 29 31 35 35 35 34 36 34 33 32 29 27 27 25 25 24 26 27 29 30 30 33 31 27 25 22 10 11 23 29 20 26 29 29 29 28 29
25 27 27 20 14 18 26 29 32 33 34 36 35 34 34 30 26 26 24 24 23 24 27 25 25 32 32 31 31 27 26 21 11 6 15 15 18 23 19 21 16 20 26
29 28 26 27 22 17 9 22 27 29 31 32 31 32 31 27 26 24 22 23 23 24 23 28 28 30 28 27 31 32 29 25 22 14 15 16 14 22 19 18 18 19 16
28 29 30 31 27 21 17 9 21 26 29 31 30 29 26 24 25 24 20 21 21 22 26 29 28 35 32 31 29 27 28 25 23 21 16 19 25 30 23 21 19 17 13
30 32 30 27 26 25 24 18 11 14 28 31 26 24 23 24 22 23 24 22 22 19 21 24 26 32 33 32 32 29 27 25 21 21 17 16 17 14 22 23 20 18 12
30 31 31 28 28 31 29 27 23 19 11 12 20 19 19 19 21 22 23 23 23 23 24 22 23 23 25 27 28 31 35 29 24 20 18 16 19 20 19 22 21 11 4
31 32 33 31 30 30 32 35 31 33 26 22 16 10 9 7 13 18 20 21 19 19 20 20 23 24 25 27 27 26 23 25 26 23 19 20 17 20 21 19 19 13 10
31 31 31 31 31 30 32 34 34 33 30 34 28 22 14 11 4 9 16 15 14 11 10 11 16 18 19 19 19 16 12 9 12 18 18 18 16 18 18 15 18 15 10
29 30 31 29 28 31 30 29 28 34 35 28 28 26 25 22 12 7 15 16 14 12 7 5 8 9 12 16 19 19 17 15 12 11 12 11 9 10 13 13 12 14 4
27 27 29 29 30 29 29 28 28 28 28 28 34 33 31 26 23 10 13 18 20 20 17 16 11 10 10 11 15 21 23 18 18 19 18 17 15 12 8 7 7 7 8
27 27 27 27 27 26 25 26 27 29 33 31 31 34 32 29 27 19 19 22 22 27 26 25 20 15 15 12 14 16 20 23 23 23 21 20 20 19 18 15 10 8 8
26 27 27 27 28 27 25 25 25 24 27 28 24 26 29 34 30 25 25 24 26 27 28 28 28 25 23 22 23 23 23 19 22 26 25 24 23 24 24 22 21 19 17
26 27 26 29 29 29 29 28 26 27 25 22 20 19 23 27 25 25 28 25 28 29 26 27 27 28 29 28 22 20 20 17 19 28 25 23 21 19 20 26 23 20 17
17 25 26 25 24 26 26 25 25 24 22 19 19 19 19 22 19 18 19 22 22 23 23 24 27 26 27 27 24 21 21 20 23 27 24 21 17 16 16 18 18 15 15
19 17 20 22 21 21 25 24 23 27 23 19 21 21 19 20 20 18 17 17 17 18 20 22 25 25 25 25 24 22 21 20 21 21 22 20 20 19 17 12 15 16 17
16 17 16 14 17 15 15 16 19 20 22 23 21 20 20 17 16 16 14 12 11 12 21 22 21 20 19 19 20 20 20 18 17 17 17 16 16 16 16 14 14 16 18
17 17 17 15 11 14 15 16 16 13 14 20 21 20 18 15 15 14 14 13 13 13 23 20 19 19 18 18 18 18 18 16 15 16 16 14 13 14 14 13 14 15 15
15 15 14 12 10 8 8 10 11 12 14 15 15 15 17 16 14 10 9 9 19 20 19 19 18 17 16 16 16 17 16 16 16 16 16 14 14 15 15 14 12 12 11
13 13 12 10 9 8 7 9 10 8 9 11 12 14 13 13 14 14 13 18 19 18 17 18 17 17 16 16 16 15 15 15 15 15 15 14 14 13 14 12 11 11 10
10 10 11 10 7 6 6 8 9 10 11 12 15 15 13 10 17 19 18 17 18 17 16 15 14 13 13 12 11 11 11 12 12 13 12 12 11 11 11 11 10 10 10
8 7 9 9 6 6 4 5 7 8 10 12 13 13 13 14 16 16 15 15 15 14 12 11 11 11 10 10 9 9 8 9 9 10 10 10 9 10 9 8 8 8 8
8 8 8 5 5 5 3 2 3 5 7 8 9 10 10 12 12 12 12 12 11 10 10 9 9 10 10 9 8 6 6 6 5 6 6 6 6 6 6 6 6 5 6
8 7 6 5 5 4 2 1 3 1 3 4 5 6 8 9 9 9 9 9 9 9 9 7 6 7 8 9 9 9 7 5 4 3 3 3 3 3 3 3 3 4 5
9 8 6 5 5 2 2 1 2 3 2 2 3 4 4 5 6 6 5 6 6 7 9 9 7 6 7 8 10 10 9 8 6 3 1 2 3 4 4 4 4 4 4
7 6 5 5 6 4 3 3 2 2 3 3 2 1 1 1 3 3 4 4 3 2 4 6 8 7 7 8 10 11 11 9 7 4 3 1 1 2 2 3 3 3 4
7 6 5 4 4 5 5 3 2 3 3 2 3 3 3 2 1 2 3 3 4 2 2 2 4 5 6 8 9 9 11 11 8 4 3 3 3 4 4 3 3 4 3
Wind_Direction
3 0 358 341 249 225 224 227 228 229 226 225 222 217 223 225 232 239 237 243 240 246 232 207 202 198 190 189 190 188 195 204 209 219 221 223 221 224 237 243 248 249 254
3 8 8 14 24 227 221 226 226 221 222 221 220 217 217 223 229 227 232 235 233 237 232 216 197 183 187 187 187 194 191 183 175 174 198 206 209 225 232 245 247 264 253
10 13 9 12 16 12 350 234 227 220 217 214 217 215 213 217 219 224 230 233 238 240 224 209 197 187 180 184 186 189 192 194 200 208 222 241 250 242 218 224 226 248 252
14 17 16 14 13 9 0 351 233 224 214 211 209 209 211 218 216 219 223 234 235 242 237 215 198 198 192 191 190 193 198 206 210 212 221 228 231 227 228 226 230 246 231
20 20 17 13 20 22 18 16 11 233 211 204 199 208 205 209 215 218 223 229 226 220 228 219 201 193 199 208 201 205 205 208 208 211 210 204 200 199 216 228 229 227 216
24 22 20 17 24 36 34 33 26 35 49 158 171 186 181 189 204 216 224 225 228 225 223 218 218 215 212 214 216 219 221 212 208 202 208 209 213 215 218 218 221 191 176
21 21 22 21 24 29 44 43 39 35 43 49 66 110 128 175 207 220 219 218 215 211 217 218 217 218 224 221 213 215 212 212 220 217 211 216 224 234 226 209 211 207 201
23 18 18 27 28 28 37 46 48 52 44 43 44 44 60 45 88 196 211 200 180 173 183 190 204 207 209 211 202 199 191 206 220 222 219 214 216 214 211 217 213 197 170
23 18 18 21 32 35 31 37 38 51 53 49 54 50 43 41 36 124 156 144 130 112 119 153 187 195 204 196 189 156 132 115 110 132 151 171 189 203 206 204 189 168 143
24 25 29 32 32 34 42 38 42 50 53 46 55 57 51 51 45 50 114 116 105 94 86 82 90 130 142 167 174 159 130 125 118 108 98 93 97 102 122 156 163 167 126
36 38 39 40 35 40 45 49 51 50 54 46 44 53 49 54 65 55 69 95 88 84 72 72 81 92 101 123 141 130 126 130 117 110 100 93 87 86 80 84 101 129 112
39 40 39 44 45 45 45 50 47 49 54 51 41 46 49 52 54 61 71 79 83 81 85 82 77 96 101 102 103 108 117 114 115 106 94 83 83 84 87 83 80 80 86
37 39 41 43 45 45 44 42 39 41 37 40 45 43 43 53 60 60 61 74 82 80 75 93 96 92 96 95 95 102 103 102 97 92 94 98 95 96 94 90 86 87 86
32 38 42 44 41 41 45 43 44 39 38 35 35 39 47 53 59 68 74 75 84 87 92 90 91 92 93 96 95 92 97 102 101 102 101 104 112 103 86 84 81 84 86
32 34 41 48 54 56 56 49 51 50 49 47 52 50 45 47 48 54 59 73 83 92 95 93 85 81 79 83 87 89 92 95 92 96 96 95 92 97 99 96 90 90 86
29 27 34 37 46 54 64 65 58 55 52 53 55 60 62 60 60 61 66 70 76 93 86 70 65 71 66 69 74 81 83 82 81 84 87 93 96 99 99 94 89 84 78
35 34 35 35 40 52 54 48 46 52 53 54 51 54 53 52 53 57 64 73 78 88 86 77 72 68 67 75 79 79 77 77 86 88 89 90 92 92 92 90 94 94 82
31 29 31 36 39 44 45 45 40 46 50 50 54 57 49 49 50 53 70 90 79 77 81 80 79 80 81 82 83 83 82 84 85 83 84 86 88 90 90 85 82 88 89
24 24 20 22 33 45 48 40 34 41 57 56 45 40 40 49 54 64 74 84 84 82 82 82 85 86 87 87 88 88 87 83 85 86 86 86 86 88 91 88 81 72 70
14 13 11 9 13 23 32 44 51 60 70 60 52 43 38 52 59 63 68 76 80 80 83 84 84 85 84 83 82 82 83 84 83 82 81 84 88 89 93 96 86 79 65
12 357 4 9 18 13 27 52 60 63 71 67 61 50 41 59 68 67 70 70 72 74 74 79 83 84 79 75 74 77 81 84 85 86 88 88 94 98 98 90 84 77 67
2 356 354 2 8 9 6 87 90 69 68 70 72 64 53 60 64 67 67 65 62 62 64 63 79 79 74 68 60 56 67 77 89 95 93 87 90 98 99 90 89 83 63
358 355 4 5 359 0 355 198 188 142 82 73 73 69 61 64 64 63 62 63 62 63 59 60 63 70 63 59 58 50 50 70 77 106 105 83 59 70 74 71 57 37 27
356 353 354 357 353 341 346 151 159 173 169 135 99 88 87 78 70 66 63 68 65 60 56 56 61 70 69 56 44 36 26 24 30 34 77 73 53 69 71 58 46 37 34
351 358 359 4 8 346 291 213 192 189 189 193 194 188 163 59 59 57 47 40 31 35 50 52 55 55 54 39 31 27 28 23 18 8 351 307 287 333 350 352 344 338 339
348 351 353 355 354 354 349 320 266 245 261 273 251 226 228 228 271 328 338 348 1 311 319 11 26 39 38 22 19 22 18 15 7 358 318 291 286 311 322 324 329 340 352